Temp
-16 -16 -15 -15 -15 -16 -16 -15 -15 -15 -15 -15 -15 -15 -15 -15 -15 -15 -15 -15 -15 -15 -15 -15 -15 -16 -16 -16 -16 -16 -17 -17 -17 -17 -17 -17 -17 -17 -18 -18 -18 -18 -19
-17 -16 -16 -16 -16 -15 -15 -16 -15 -15 -15 -15 -15 -15 -15 -15 -15 -15 -15 -15 -15 -15 -15 -16 -16 -16 -16 -16 -16 -16 -17 -17 -17 -17 -17 -17 -17 -17 -18 -17 -18 -19 -19
-18 -17 -16 -16 -16 -16 -16 -16 -15 -15 -15 -15 -15 -15 -15 -15 -15 -15 -16 -15 -16 -16 -16 -16 -16 -16 -16 -16 -16 -17 -17 -17 -17 -17 -17 -17 -17 -17 -18 -18 -18 -18 -19
-19 -18 -17 -16 -16 -16 -16 -16 -16 -16 -16 -15 -15 -15 -15 -15 -15 -16 -16 -16 -16 -16 -16 -16 -16 -16 -16 -16 -16 -17 -17 -17 -17 -17 -17 -17 -17 -17 -17 -18 -18 -19 -19
-19 -19 -17 -17 -17 -17 -16 -16 -16 -16 -16 -16 -16 -16 -16 -16 -16 -16 -16 -16 -16 -16 -16 -16 -16 -16 -16 -16 -17 -17 -17 -17 -17 -17 -17 -17 -17 -17 -18 -18 -18 -19 -19
-19 -19 -18 -17 -17 -17 -16 -16 -16 -16 -16 -16 -16 -16 -16 -16 -16 -16 -16 -17 -17 -17 -17 -17 -17 -17 -17 -17 -17 -17 -17 -17 -17 -17 -17 -17 -17 -17 -18 -18 -18 -19 -19
-19 -20 -19 -18 -18 -17 -17 -17 -17 -17 -17 -16 -16 -16 -16 -16 -16 -17 -17 -17 -17 -17 -17 -17 -17 -17 -17 -17 -17 -17 -17 -17 -17 -17 -17 -17 -17 -18 -18 -18 -18 -19 -19
-19 -19 -19 -19 -18 -17 -17 -17 -17 -17 -17 -17 -17 -17 -17 -17 -17 -17 -17 -17 -17 -18 -17 -17 -17 -17 -17 -17 -17 -17 -17 -17 -17 -17 -17 -17 -17 -18 -18 -18 -18 -19 -19
-20 -19 -19 -19 -19 -18 -18 -17 -17 -17 -17 -17 -17 -17 -17 -17 -17 -17 -17 -17 -18 -18 -18 -18 -18 -17 -17 -17 -17 -17 -17 -17 -17 -17 -17 -17 -18 -18 -18 -18 -18 -19 -19
-20 -20 -19 -19 -19 -19 -18 -18 -17 -18 -17 -17 -17 -17 -17 -17 -17 -17 -17 -18 -18 -18 -18 -18 -18 -18 -18 -18 -17 -18 -18 -18 -18 -17 -17 -17 -18 -18 -18 -18 -18 -19 -19
-20 -20 -19 -19 -19 -19 -18 -18 -18 -18 -18 -18 -18 -17 -18 -17 -17 -17 -18 -18 -18 -18 -18 -18 -18 -18 -18 -18 -18 -18 -18 -18 -18 -18 -18 -18 -18 -19 -19 -19 -19 -19 -19
-20 -20 -19 -19 -19 -19 -18 -19 -18 -18 -18 -18 -18 -18 -18 -17 -18 -18 -18 -19 -18 -18 -18 -18 -18 -18 -18 -18 -18 -18 -18 -18 -18 -18 -18 -19 -19 -19 -19 -19 -19 -19 -19
-21 -21 -20 -19 -20 -19 -18 -18 -19 -19 -19 -19 -18 -18 -18 -18 -18 -19 -19 -19 -19 -19 -18 -18 -18 -18 -19 -19 -19 -19 -19 -18 -18 -18 -19 -19 -19 -19 -19 -20 -19 -19 -19
-21 -21 -20 -20 -19 -20 -19 -19 -19 -19 -19 -19 -18 -19 -19 -19 -19 -19 -19 -19 -19 -19 -19 -19 -19 -19 -19 -19 -19 -19 -19 -19 -19 -19 -19 -19 -19 -20 -20 -20 -20 -19 -19
-21 -21 -20 -20 -19 -19 -19 -19 -19 -19 -19 -19 -19 -19 -19 -19 -20 -19 -20 -20 -19 -19 -19 -19 -19 -19 -19 -19 -19 -19 -19 -19 -19 -19 -20 -20 -20 -20 -20 -20 -20 -20 -20
-21 -21 -21 -20 -20 -20 -19 -19 -19 -19 -19 -20 -19 -19 -20 -20 -20 -20 -20 -20 -19 -19 -19 -19 -20 -19 -19 -19 -19 -19 -19 -19 -19 -20 -20 -20 -20 -20 -21 -21 -20 -20 -20
-22 -21 -21 -21 -20 -20 -20 -20 -19 -20 -20 -20 -20 -20 -20 -20 -20 -20 -20 -20 -20 -19 -20 -20 -20 -20 -19 -19 -19 -19 -20 -20 -20 -20 -20 -20 -20 -21 -21 -21 -21 -21 -20
-22 -22 -21 -21 -21 -21 -20 -20 -20 -20 -20 -20 -20 -20 -20 -20 -20 -20 -20 -20 -20 -20 -20 -20 -20 -20 -20 -20 -20 -20 -20 -20 -20 -20 -20 -21 -21 -21 -21 -21 -21 -21 -21
-22 -22 -22 -22 -21 -21 -21 -20 -21 -21 -21 -21 -21 -20 -20 -20 -20 -21 -21 -20 -20 -20 -20 -20 -20 -20 -20 -20 -20 -20 -20 -21 -21 -21 -21 -21 -21 -21 -22 -22 -22 -22 -21
-23 -23 -23 -22 -22 -21 -21 -20 -20 -21 -21 -21 -20 -20 -21 -21 -21 -21 -20 -20 -20 -20 -20 -20 -20 -21 -20 -20 -20 -21 -21 -21 -21 -21 -21 -21 -21 -21 -22 -22 -22 -22 -21
-23 -23 -23 -22 -22 -21 -21 -21 -20 -20 -20 -21 -21 -21 -21 -21 -21 -21 -21 -21 -21 -21 -21 -21 -21 -21 -21 -21 -21 -21 -21 -22 -22 -21 -21 -21 -22 -22 -22 -22 -22 -22 -22
-24 -23 -23 -22 -22 -22 -21 -21 -21 -21 -20 -20 -20 -20 -21 -21 -21 -21 -21 -21 -21 -21 -21 -21 -21 -21 -21 -21 -21 -22 -22 -22 -22 -22 -22 -22 -22 -22 -22 -22 -22 -22 -22
-24 -23 -23 -23 -22 -22 -22 -22 -21 -21 -21 -21 -21 -21 -22 -22 -22 -22 -22 -22 -21 -21 -21 -21 -22 -21 -22 -22 -22 -22 -22 -23 -23 -22 -22 -22 -22 -22 -22 -22 -22 -22 -22
-24 -24 -23 -23 -23 -23 -22 -22 -22 -22 -22 -22 -22 -22 -22 -22 -22 -22 -22 -22 -22 -22 -22 -22 -22 -22 -22 -22 -23 -23 -23 -23 -23 -23 -22 -22 -22 -22 -22 -22 -22 -22 -22
-24 -24 -24 -24 -24 -24 -24 -23 -23 -23 -23 -23 -23 -23 -23 -23 -23 -23 -23 -22 -23 -23 -23 -23 -23 -23 -23 -23 -23 -23 -23 -23 -23 -23 -23 -23 -23 -23 -23 -23 -23 -23 -23
-25 -24 -24 -24 -24 -24 -24 -24 -24 -24 -24 -24 -23 -23 -23 -23 -23 -23 -23 -23 -24 -24 -24 -24 -24 -24 -24 -23 -23 -23 -23 -23 -23 -23 -23 -23 -23 -23 -23 -23 -23 -23 -23
Height
5628 5635 5642 5650 5654 5660 5666 5671 5676 5680 5685 5689 5692 5695 5698 5700 5702 5704 5706 5708 5709 5711 5711 5711 5712 5711 5710 5709 5706 5704 5701 5697 5693 5689 5683 5678 5670 5662 5653 5644 5635 5625 5614
5617 5623 5631 5638 5644 5650 5656 5662 5667 5671 5675 5680 5683 5687 5689 5691 5694 5696 5698 5700 5702 5703 5704 5705 5705 5704 5703 5702 5700 5698 5695 5691 5687 5683 5678 5672 5665 5657 5649 5640 5630 5621 5611
5605 5613 5620 5628 5634 5641 5647 5653 5658 5662 5666 5671 5675 5678 5681 5683 5686 5688 5690 5692 5694 5695 5696 5697 5697 5697 5696 5695 5694 5691 5688 5685 5681 5676 5671 5666 5660 5652 5643 5635 5626 5617 5607
5593 5603 5611 5617 5624 5631 5637 5643 5648 5652 5657 5662 5665 5669 5672 5675 5677 5679 5681 5683 5685 5687 5688 5688 5688 5688 5687 5687 5686 5684 5681 5678 5674 5669 5664 5660 5654 5647 5639 5629 5620 5612 5602
5583 5591 5600 5606 5613 5620 5627 5632 5637 5642 5647 5652 5655 5659 5662 5665 5668 5670 5672 5674 5676 5678 5679 5679 5680 5679 5678 5678 5678 5676 5673 5670 5666 5662 5658 5653 5648 5642 5635 5627 5618 5609 5601
5572 5579 5587 5594 5601 5609 5615 5620 5626 5631 5636 5641 5646 5649 5653 5656 5658 5660 5663 5665 5667 5668 5669 5670 5670 5670 5670 5669 5668 5667 5665 5663 5659 5655 5651 5646 5642 5636 5630 5623 5615 5607 5598
5560 5567 5575 5582 5590 5597 5603 5609 5615 5621 5626 5631 5635 5639 5643 5646 5649 5650 5653 5655 5657 5658 5659 5660 5660 5660 5660 5660 5659 5658 5656 5654 5651 5647 5643 5639 5635 5630 5625 5619 5612 5605 5597
5548 5554 5562 5570 5577 5584 5591 5597 5603 5609 5615 5620 5624 5629 5632 5635 5638 5640 5643 5645 5646 5647 5648 5649 5649 5650 5650 5650 5649 5648 5646 5645 5642 5639 5635 5632 5628 5624 5619 5613 5607 5601 5594
5535 5541 5548 5556 5564 5572 5579 5586 5592 5598 5604 5609 5612 5617 5621 5624 5627 5630 5632 5633 5634 5636 5637 5638 5639 5639 5640 5639 5639 5638 5637 5635 5633 5630 5627 5624 5621 5616 5613 5608 5602 5596 5590
5522 5528 5534 5543 5551 5560 5567 5574 5580 5585 5591 5596 5601 5606 5609 5613 5615 5618 5620 5621 5623 5624 5626 5626 5627 5628 5629 5629 5629 5628 5627 5625 5624 5621 5619 5616 5614 5610 5606 5602 5597 5592 5586
5509 5516 5523 5530 5539 5546 5553 5561 5567 5573 5578 5584 5589 5594 5597 5600 5604 5606 5608 5610 5611 5613 5614 5615 5616 5617 5618 5618 5618 5618 5617 5615 5614 5612 5610 5608 5606 5602 5599 5595 5592 5587 5582
5496 5504 5512 5518 5525 5533 5541 5548 5554 5561 5566 5572 5577 5581 5585 5589 5592 5594 5596 5598 5599 5601 5602 5603 5604 5605 5606 5606 5607 5607 5606 5605 5604 5602 5601 5599 5598 5595 5592 5589 5585 5581 5577
5484 5492 5500 5506 5513 5520 5528 5535 5542 5548 5555 5560 5564 5569 5573 5577 5579 5582 5584 5585 5588 5588 5590 5592 5593 5594 5595 5594 5595 5595 5596 5595 5594 5592 5591 5590 5589 5587 5584 5581 5578 5574 5571
5473 5480 5487 5494 5502 5509 5516 5523 5530 5536 5542 5547 5552 5556 5560 5564 5567 5569 5570 5573 5576 5577 5579 5579 5581 5582 5583 5583 5583 5583 5584 5584 5583 5582 5582 5580 5579 5578 5576 5574 5570 5567 5565
5462 5469 5476 5482 5489 5496 5504 5511 5517 5523 5528 5534 5538 5542 5547 5551 5554 5556 5560 5561 5563 5565 5566 5567 5569 5570 5571 5572 5571 5571 5572 5572 5572 5572 5571 5571 5570 5569 5567 5565 5563 5560 5558
5451 5458 5465 5471 5476 5483 5491 5498 5504 5511 5516 5522 5526 5530 5534 5537 5540 5543 5546 5548 5550 5552 5553 5555 5556 5558 5559 5559 5559 5559 5560 5561 5562 5562 5561 5561 5560 5560 5558 5557 5555 5552 5550
5439 5447 5454 5460 5465 5471 5478 5485 5492 5498 5503 5509 5513 5517 5520 5524 5526 5529 5532 5535 5536 5539 5541 5542 5543 5545 5545 5546 5547 5547 5548 5550 5550 5550 5550 5550 5550 5549 5549 5547 5546 5544 5542
5429 5436 5443 5449 5454 5460 5466 5473 5479 5485 5492 5497 5500 5504 5507 5509 5512 5515 5518 5519 5522 5525 5526 5528 5530 5531 5533 5534 5535 5535 5536 5537 5538 5539 5539 5539 5539 5539 5538 5537 5536 5534 5533
5419 5426 5432 5438 5444 5449 5455 5460 5466 5472 5477 5481 5484 5488 5490 5495 5498 5502 5502 5505 5508 5511 5513 5514 5517 5518 5520 5521 5522 5523 5524 5524 5525 5526 5527 5527 5527 5527 5527 5526 5526 5524 5523
5409 5415 5422 5428 5433 5438 5443 5449 5454 5458 5462 5466 5470 5474 5478 5482 5483 5485 5488 5491 5494 5496 5498 5500 5502 5504 5506 5508 5509 5510 5510 5511 5512 5513 5514 5515 5515 5515 5514 5514 5514 5514 5513
5401 5406 5412 5418 5423 5428 5432 5437 5441 5445 5450 5453 5457 5460 5463 5466 5468 5471 5474 5476 5479 5482 5484 5485 5488 5490 5492 5494 5495 5495 5496 5498 5499 5500 5500 5502 5502 5502 5502 5502 5502 5501 5502
5392 5398 5403 5408 5413 5418 5420 5424 5427 5431 5435 5438 5441 5444 5447 5449 5452 5455 5458 5461 5464 5467 5470 5472 5474 5476 5478 5479 5480 5481 5482 5484 5485 5486 5486 5487 5488 5489 5489 5489 5489 5489 5489
5384 5389 5394 5398 5402 5405 5409 5412 5415 5418 5421 5424 5427 5430 5433 5436 5439 5442 5445 5448 5451 5453 5456 5458 5459 5461 5462 5464 5465 5466 5468 5469 5470 5472 5472 5472 5473 5473 5474 5474 5475 5475 5475
5378 5381 5384 5388 5392 5396 5399 5402 5405 5407 5410 5412 5415 5418 5421 5423 5426 5429 5432 5434 5437 5439 5441 5443 5444 5446 5447 5448 5450 5451 5453 5454 5455 5456 5456 5456 5457 5457 5457 5458 5459 5460 5460
5369 5372 5375 5379 5382 5385 5389 5391 5394 5397 5400 5402 5405 5407 5409 5411 5413 5415 5417 5419 5421 5423 5425 5427 5428 5430 5431 5432 5434 5435 5436 5437 5438 5439 5439 5440 5440 5439 5440 5441 5442 5444 5445
5361 5364 5368 5371 5374 5377 5380 5381 5383 5386 5388 5389 5391 5393 5395 5397 5398 5400 5402 5404 5406 5408 5409 5411 5412 5414 5415 5416 5417 5418 5418 5419 5420 5421 5421 5422 5422 5422 5422 5423 5424 5426 5427
Wind_Speed
47 50 49 46 46 43 41 40 38 38 36 36 34 32 32 31 30 29 27 25 25 24 22 22 22 19 19 20 20 23 26 28 32 37 40 44 46 51 55 54 51 50 54
46 52 51 50 49 47 44 42 41 40 39 37 35 34 33 32 32 30 28 27 28 27 26 26 26 26 24 25 24 26 29 32 35 38 41 44 46 49 53 52 53 50 51
45 52 54 53 50 48 45 42 41 41 40 39 37 35 35 34 33 32 29 29 30 30 30 30 31 31 31 29 29 30 33 35 38 40 43 45 47 48 52 51 52 50 49
46 48 53 53 51 48 46 44 44 43 42 41 39 37 36 35 34 33 30 30 32 33 33 34 35 34 34 34 33 34 35 37 40 43 44 46 47 46 50 51 50 48 48
49 46 51 53 52 50 47 46 45 44 43 42 39 38 38 36 36 34 33 32 33 35 36 38 39 39 38 38 38 38 39 41 43 45 46 47 46 44 48 48 46 46 47
50 51 49 53 53 51 50 49 47 45 44 42 40 40 39 37 37 35 34 34 35 38 39 41 41 43 43 42 43 44 44 44 46 47 48 46 43 41 45 44 42 44 47
53 51 51 51 52 52 51 50 47 45 44 43 42 41 40 38 38 36 36 36 37 40 42 42 44 44 45 46 47 47 47 47 48 47 45 43 40 39 44 42 41 43 43
53 56 52 53 50 52 52 51 48 45 44 44 43 43 42 40 39 38 36 38 41 42 43 44 43 44 46 47 48 48 47 46 44 42 42 40 37 38 41 41 40 41 41
48 54 57 51 55 53 50 49 48 46 45 45 46 45 43 42 40 39 41 44 44 45 45 45 44 44 44 44 44 43 42 42 41 40 40 39 35 37 39 39 38 39 40
57 51 55 61 50 53 52 53 50 48 48 48 47 46 44 43 43 44 47 47 45 47 46 46 46 45 44 43 43 42 41 41 40 40 39 37 34 37 38 38 38 38 38
52 57 52 54 61 52 52 52 51 50 50 49 48 47 47 48 48 50 50 46 43 44 46 47 47 45 44 43 43 43 42 41 40 39 37 35 35 37 36 37 37 37 37
49 53 56 53 57 61 53 51 52 52 51 49 49 51 50 50 52 51 43 44 43 43 45 47 47 45 44 43 43 42 41 39 38 37 37 35 36 36 35 36 36 36 36
47 42 53 57 54 56 58 56 55 56 54 54 55 55 52 53 52 45 44 42 43 41 41 42 44 44 44 44 42 40 40 39 40 38 38 37 36 34 34 35 35 35 36
49 42 45 53 59 56 55 55 54 53 55 55 56 53 54 53 48 45 45 44 42 40 40 39 39 42 44 43 41 41 41 41 40 37 38 37 35 34 34 34 34 35 35
46 44 39 45 55 56 61 61 59 58 57 54 53 56 52 48 47 49 45 43 44 42 41 38 37 39 40 40 40 39 38 36 35 36 36 36 35 35 34 35 35 36 35
43 45 40 45 50 54 56 57 58 56 51 50 56 57 52 51 49 49 49 47 47 46 43 39 37 38 39 40 40 38 36 34 34 36 35 36 36 36 37 36 37 36 35
42 41 42 39 45 51 52 51 51 51 51 53 54 60 58 51 49 51 49 50 51 49 43 40 40 40 42 42 40 38 36 35 35 37 36 35 36 37 39 37 37 37 35
41 40 40 40 34 41 50 52 53 55 54 60 58 57 55 58 57 51 49 49 50 46 44 43 41 43 44 43 41 39 37 37 38 37 35 35 37 39 37 38 38 36 36
40 41 38 41 39 34 40 49 51 57 56 54 59 63 64 60 59 56 49 51 49 47 44 45 46 46 46 44 42 40 39 38 38 38 37 37 37 38 41 40 38 37 38
39 41 40 38 36 33 36 39 47 53 57 63 64 62 61 58 53 51 52 50 48 46 44 44 44 45 45 43 43 39 38 40 40 40 41 38 39 42 40 36 37 39 39
40 40 40 40 36 39 39 39 41 44 47 48 46 48 50 51 47 43 41 41 42 42 43 45 46 47 45 43 43 41 41 42 44 45 42 42 40 39 38 40 41 40 40
40 40 41 41 40 39 43 43 42 43 44 46 47 46 44 43 44 44 43 44 47 47 47 46 47 48 46 44 43 44 44 43 41 40 40 40 39 41 42 43 43 43 43
36 37 40 41 40 38 34 37 42 44 44 45 46 45 43 43 42 41 43 44 44 45 46 46 47 47 46 46 45 42 40 40 40 41 43 44 45 45 45 46 46 45 44
33 31 33 36 36 36 37 38 36 38 40 43 44 44 43 43 44 45 46 47 48 49 50 49 46 44 43 42 41 41 42 43 45 47 48 48 48 48 49 48 46 45 44
30 26 25 26 29 31 34 35 36 38 40 41 42 43 45 46 47 46 44 42 41 41 42 41 41 41 41 42 44 46 48 49 50 51 51 52 51 50 50 48 47 48 46
26 27 28 28 28 28 29 30 32 33 34 35 34 34 34 35 35 35 37 38 39 40 41 42 43 45 47 49 50 51 52 52 52 52 52 53 53 52 52 52 52 51 51
Wind_Direction
226 223 223 224 226 228 230 231 232 235 238 241 245 248 251 253 255 258 260 260 256 252 261 262 262 268 278 290 297 302 309 315 320 327 330 332 334 337 339 340 341 341 341
228 223 223 224 227 230 231 232 232 235 238 240 244 246 250 251 255 256 257 257 256 252 255 258 263 268 276 284 293 298 305 310 315 322 326 329 332 335 336 338 339 341 341
225 225 223 224 227 230 233 234 236 237 240 241 244 246 249 250 253 255 255 257 256 253 253 255 259 265 272 281 288 293 299 305 312 317 321 326 329 333 334 335 337 341 341
221 228 225 225 227 230 232 234 236 237 239 241 244 246 248 249 253 255 255 257 257 255 255 257 259 263 271 278 284 289 295 302 307 312 317 323 326 330 332 333 336 340 342
227 226 227 227 227 229 231 234 237 239 240 242 243 244 245 246 250 253 256 256 257 258 257 259 263 267 271 277 283 288 292 298 303 308 314 319 323 326 331 331 336 339 341
227 222 229 228 229 229 230 234 237 239 240 241 242 243 244 246 250 251 255 256 258 259 260 261 263 266 271 275 280 284 290 296 301 306 310 315 320 323 328 329 336 337 339
231 225 227 230 229 230 232 233 235 238 239 240 241 242 244 246 249 251 254 257 260 260 261 263 264 266 270 274 279 284 289 294 298 302 308 312 317 319 325 327 334 337 338
231 228 227 227 230 231 233 234 235 235 237 238 240 242 243 245 249 251 255 258 260 259 260 262 264 267 270 274 279 284 289 293 298 302 305 309 313 316 323 324 330 335 337
230 231 225 229 230 233 235 234 234 234 237 238 238 240 242 245 249 253 257 259 259 259 258 260 264 267 271 274 279 284 289 293 298 301 304 307 309 314 318 320 326 332 336
226 229 229 226 228 227 230 233 232 233 234 235 237 239 243 246 250 257 261 262 264 264 260 259 261 266 271 275 279 283 288 292 296 299 302 304 306 311 315 317 321 329 333
227 225 228 230 227 228 226 230 231 231 233 233 236 240 243 247 254 263 262 262 267 267 263 262 261 264 269 274 278 282 285 290 293 296 300 300 304 308 312 315 318 324 330
237 226 224 227 228 229 226 229 231 230 230 233 237 241 245 254 258 261 260 265 266 265 264 264 263 263 267 272 276 280 284 288 290 295 296 299 304 307 308 311 315 320 325
241 235 224 224 226 227 226 227 230 231 233 236 239 242 248 256 257 254 261 263 265 261 264 267 268 267 268 269 273 278 281 283 287 290 293 298 300 303 304 308 313 317 320
238 237 229 229 226 228 228 227 231 235 236 239 243 245 250 253 253 259 257 264 261 261 263 264 268 268 268 270 272 276 280 283 285 287 291 295 295 298 300 305 310 311 315
238 236 231 231 232 229 230 231 233 234 237 240 240 244 250 252 255 257 259 257 258 258 260 261 265 268 270 271 272 275 278 280 283 285 289 290 291 294 297 302 306 309 311
235 241 233 226 229 232 233 234 237 235 240 238 240 245 253 257 258 259 260 254 256 257 258 259 263 266 268 269 271 272 274 277 280 284 285 286 287 292 294 297 302 304 306
233 237 237 229 226 231 230 231 237 239 238 239 243 248 251 263 262 262 262 250 252 255 256 259 260 262 263 266 269 269 272 275 278 279 282 284 287 290 293 294 298 298 302
230 233 237 233 220 232 233 232 235 230 235 242 249 253 256 259 261 267 267 245 249 252 252 253 257 259 261 265 265 267 272 274 275 277 281 285 288 290 293 294 293 294 296
225 229 231 237 230 221 231 233 232 231 232 238 242 248 253 257 264 265 246 245 250 250 252 256 257 259 261 262 264 266 268 269 271 274 281 284 284 291 292 291 289 290 294
225 228 227 234 242 242 230 228 231 235 236 239 242 247 254 257 248 246 246 248 250 251 256 260 259 261 263 262 265 268 266 267 268 276 279 279 285 287 287 286 286 291 293
226 226 229 233 234 238 238 239 237 236 236 239 240 239 238 241 246 249 255 256 254 255 254 252 255 255 255 258 261 262 264 267 271 276 277 280 281 280 280 283 286 288 289
225 225 227 228 233 237 235 234 239 242 244 245 246 245 244 245 247 249 252 253 253 256 260 260 259 260 260 260 262 265 267 269 269 270 271 273 275 277 281 282 284 285 287
229 227 225 224 227 233 241 240 241 244 248 250 250 250 249 250 251 253 254 253 255 256 257 257 258 258 259 260 261 261 263 265 267 269 272 275 277 278 279 279 281 283 285
220 224 227 229 231 236 237 239 244 245 244 244 244 245 247 249 251 253 253 254 254 253 253 253 252 254 256 258 260 262 265 268 270 272 274 275 276 276 277 278 279 280 280
220 226 224 225 228 232 237 239 242 246 247 247 247 247 248 248 248 247 247 248 250 252 254 255 257 260 262 265 266 267 268 269 271 272 273 274 274 274 275 276 276 277 278
210 215 219 218 221 223 227 228 231 234 236 238 241 244 248 250 253 256 258 260 262 263 265 265 265 265 265 266 267 267 268 270 271 271 271 271 272 273 273 274 275 275 275